STARLINK-37663, 69048

Orbit data source: Space-Track

STARLINK-37663, 69048 is a payload satellite owned by SpaceX/Seattle (US) in SSO that was launched on Wed, 06 May 2026 UTC via an FALCON 9 launch vehicle from the Air Force Western Test Range (AFWTR). Payload-class satellites include a variety of spacecraft equipped with specific instruments for various scientific and technological missions. These include communications satellites like Starlink; space stations such as the ISS; scientific satellites like the Hubble; Earth observation satellites from companies like Planet Labs, Umbra, and HawkEye 360; GPS; miniature CubeSats for education and research; and military/defense satellites.

Loading next visibility...
Identifier
69048, 2026-101Z
Orbit
SSO
Country
Flag of USUS
Related business
Manufacturer
SpaceX/Seattle
Mission
Operational Commercial Communications
Bus & Motor
STARLINK V2MO, Unknown motor
Mass
575 kg wet, ~530 kg dry
Launch date (UTC)
2026-05-06 (2 months ago)
Launch vehicle
FALCON 9
Launch site
Air Force Western Test Range (AFWTR)
Object type
Payload
Rocket body
Debris
Shape & HBR
Box + 2 Pan, 17.7 m
Radar Cross Section
36.964 m², Large (>1 m²)

Expand to show TLE details & history
Last TLE update: 19 hours ago

TLE from 19 hours ago
0 STARLINK-37663
1 69048U 26101Z   26192.57738621  .00022031  00000-0  68217-3 0  9991
2 69048  97.2848  47.1222 0002477 103.4096 256.7423 15.33470535 10318
Epoch: 2026-07-11T13:51Z
TLE epoch observation values (Epoch: 2026-07-11T13:51:26.168Z)
Latitude
-0.00003°
Longitude
-90.22544°
Altitude
468.968 km
Speed
7.631 km/s
True Right ascension
03h 08m 29s
True Declination
0° 00' 00"
Sunlit
Object was in daylight at epoch
Visualization orbit readout
Latitude
Unknown
Longitude
Unknown
Altitude
Unknown
Speed
Unknown
Apparent Right ascension
Unknown
Apparent Declination
Unknown
Sunlit
N/A
Visualization observer readout
Local Sidereal Time
21:01:44
Azimuth
Unknown
Elevation
Unknown
Doppler factor
Unknown
Orbital elements
Apogee altitude
464.104 km
Perigee altitude
460.716 km
Semi-major axis
6,840.547 km
Eccentricity
0.00025
Inclination
97.2848°
RAAN
47.1222°
Arg. of periapsis
103.4096°
True anomaly
256.71467°
Mean anomaly
256.7423°
Eccentric anomaly
256.72849°
Mean motion
3.83625 °/min
Orbital period
93.84 mins
BSTAR
0.00068217
Loading maneuver chart data...
Computing Atmospheric mass density...
Loading historical data...
Loading historical data...
Loading historical data...
Loading historical data...
Loading historical data...
Loading historical data...
Loading historical data...

Documentation

Showing up to 5 results
|